This is the latest recevied weather packets stored in our database for station/object WA6OOO. If no packets are shown the sender has not sent any weather packets the latest 10 day(s).
| Time | Temp. | Humidity | Pressure | Rain* | Wind** | Luminosity | Snow |
|---|---|---|---|---|---|---|---|
| 1788184800 | 16.11° C | 95% | 1016.5 hPa | 0 mm | - | 23 W/m² | - |
| 1788184494 | 16.11° C | 95% | 1016.3 hPa | 0 mm | - | 18 W/m² | - |
| 1788184189 | 16.11° C | 95% | 1016.2 hPa | 0 mm | - | 14 W/m² | - |
| 1788183886 | 16.11° C | 95% | 1016.1 hPa | 0 mm | - | 10 W/m² | - |
| 1788183586 | 16.11° C | 95% | 1016 hPa | 0 mm | - | 7 W/m² | - |
| 1788183280 | 16.11° C | 95% | 1016.1 hPa | 0 mm | - | 5 W/m² | - |
| 1788182976 | 16.11° C | 95% | 1016.1 hPa | 0 mm | - | 3 W/m² | - |
| 1788182671 | 16.11° C | 95% | 1016 hPa | 0 mm | - | 1 W/m² | - |
| 1788182370 | 16.11° C | 95% | 1016 hPa | 0 mm | - | 1 W/m² | - |
| 1788182066 | 16.11° C | 95% | 1016.1 hPa | 0 mm | - | 0 W/m² | - |
| 1788181761 | 16.11° C | 95% | 1016.1 hPa | 0 mm | - | 0 W/m² | - |
| 1788181457 | 16.67° C | 95% | 1016.1 hPa | 0 mm | - | 0 W/m² | - |
| 1788181156 | 16.67° C | 95% | 1016.1 hPa | 0 mm | - | 0 W/m² | - |
| 1788180851 | 16.67° C | 94% | 1016 hPa | 0 mm | - | 0 W/m² | - |
| 1788180546 | 16.11° C | 94% | 1015.8 hPa | 0 mm | - | 0 W/m² | - |
| 1788180243 | 16.11° C | 94% | 1016 hPa | 0 mm | - | 0 W/m² | - |
| 1788179943 | 16.11° C | 94% | 1016 hPa | 0 mm | - | 0 W/m² | - |
| 1788179642 | 16.11° C | 94% | 1015.8 hPa | 0 mm | - | 0 W/m² | - |
| 1788179342 | 16.11° C | 94% | 1015.8 hPa | 0 mm | - | 0 W/m² | - |
| 1788179037 | 16.67° C | 94% | 1015.6 hPa | 0 mm | - | 0 W/m² | - |
| 1788178732 | 16.67° C | 94% | 1015.7 hPa | 0 mm | - | 0 W/m² | - |
| 1788178428 | 16.67° C | 93% | 1015.8 hPa | 0 mm | - | 0 W/m² | - |
| 1788178124 | 16.67° C | 93% | 1015.6 hPa | 0 mm | - | 0 W/m² | - |
| 1788177818 | 16.67° C | 93% | 1015.7 hPa | 0 mm | - | 0 W/m² | - |
| 1788177513 | 16.11° C | 93% | 1015.9 hPa | 0 mm | - | 0 W/m² | - |
* Rain latest hour (hover to see other rain measurements)
** Current wind speed in m/s (hover to see current wind gust speed)